FW6618 Weather Reports


Display with metric or nautical units.
time (UTC)temp
F
wind
direction
speed
MPH
gust
MPH
rain 1hr
in
rain 24hr
in
rain mn
in
humidity
%
barometer
mb
20260901115025 64 0 0.0 0.0 0.04 0.23 0.23 98 1018.8
20260901114539 64 0 0.0 0.0 0.07 0.23 0.23 98 1018.9
20260901114023 63 0 0.0 0.0 0.11 0.23 0.23 98 1018.9
20260901113524 63 0 0.0 0.0 0.14 0.23 0.23 98 1018.6
20260901113053 63 0 0.0 0.0 0.16 0.23 0.23 98 1018.7
20260901112520 63 0 0.0 0.0 0.18 0.23 0.23 98 1018.7
20260901112024 63 0 0.0 0.0 0.19 0.23 0.23 98 1018.8
20260901111542 63 0 0.0 0.0 0.19 0.22 0.22 98 1018.8
20260901111023 63 0 0.0 0.0 0.20 0.22 0.22 98 1018.8
20260901110523 63 0 0.0 0.0 0.21 0.22 0.22 98 1018.8
20260901110045 63 0 0.0 0.0 0.21 0.21 0.21 98 1018.7
20260901105524 63 0 0.0 0.0 0.20 0.20 0.20 97 1019.0
20260901105023 63 0 0.0 0.0 0.18 0.18 0.18 97 1019.1
20260901104549 63 0 0.0 0.0 0.15 0.15 0.15 97 1018.9
20260901104021 64 0 0.0 0.0 0.11 0.11 0.11 97 1018.9
20260901103520 64 0 0.0 0.0 0.09 0.09 0.09 97 1018.9
20260901103042 64 0 0.0 0.0 0.06 0.06 0.06 97 1018.8
20260901102519 64 0 0.0 0.0 0.05 0.05 0.05 97 1018.8
20260901102020 64 0 0.0 0.0 0.04 0.04 0.04 97 1018.7
20260901101549 64 0 0.0 0.0 0.03 0.03 0.03 97 1018.6
20260901101024 64 0 0.0 0.0 0.02 0.02 0.02 97 1018.4
20260901100523 64 0 0.0 0.0 0.01 0.01 0.01 97 1018.3
20260901100044 64 0 0.0 0.0 0.00 0.00 0.00 97 1018.2
20260901095524 64 0 0.0 0.0 0.00 0.00 0.00 97 1018.3
20260901095025 64 0 0.0 0.0 0.00 0.00 0.00 97 1018.2
20260901094541 64 0 0.0 0.0 0.00 0.00 0.00 97 1018.1
20260901094021 64 0 0.0 0.0 0.00 0.00 0.00 97 1018.1
20260901093524 64 0 0.0 0.0 0.00 0.00 0.00 97 1018.2
20260901093050 64 0 0.0 0.0 0.00 0.00 0.00 97 1018.2
20260901092524 64 0 0.0 0.0 0.00 0.00 0.00 97 1018.2
20260901092026 64 0 0.0 0.0 0.00 0.00 0.00 97 1018.2
20260901091553 64 0 0.0 0.0 0.00 0.00 0.00 97 1018.2
20260901091025 64 0 0.0 0.0 0.00 0.00 0.00 97 1018.4
20260901090523 64 0 0.0 0.0 0.00 0.00 0.00 97 1018.3
20260901090049 64 0 0.0 0.0 0.00 0.00 0.00 97 1018.4
20260901085524 64 0 0.0 0.0 0.00 0.00 0.00 97 1018.4
20260901085022 64 0 0.0 0.0 0.00 0.00 0.00 97 1018.5
20260901084541 64 0 0.0 0.0 0.00 0.00 0.00 97 1018.5
20260901084024 64 0 0.0 0.0 0.00 0.00 0.00 97 1018.3
20260901083526 64 0 0.0 0.0 0.00 0.00 0.00 97 1018.6
20260901083042 64 0 0.0 0.0 0.00 0.00 0.00 97 1018.7
20260901082519 64 0 0.0 0.0 0.00 0.00 0.00 97 1018.6
20260901082024 64 0 0.0 0.0 0.00 0.00 0.00 97 1018.7
20260901081538 64 0 0.0 0.0 0.00 0.00 0.00 97 1018.8
20260901081024 64 0 0.0 0.0 0.00 0.00 0.00 97 1018.6
20260901080524 64 0 0.0 0.0 0.00 0.00 0.00 97 1018.6
20260901080045 64 0 0.0 0.0 0.00 0.00 0.00 97 1018.8
20260901075527 64 0 0.0 0.0 0.00 0.00 0.00 97 1018.8
20260901075026 64 0 0.0 0.0 0.00 0.00 0.00 97 1018.8
20260901074548 64 0 0.0 0.0 0.00 0.00 0.00 96 1018.9
20260901074027 64 0 0.0 0.0 0.00 0.00 0.00 96 1018.7
20260901073524 64 0 0.0 0.0 0.00 0.00 0.00 96 1018.6
20260901073041 64 0 0.0 0.0 0.00 0.00 0.00 96 1018.4
20260901072519 64 0 0.0 0.0 0.00 0.00 0.00 96 1018.5
20260901072022 64 0 0.0 0.0 0.00 0.00 0.00 96 1018.7
20260901071542 64 0 0.0 0.0 0.00 0.00 0.00 96 1018.5
20260901071025 64 0 0.0 0.0 0.00 0.00 0.00 96 1018.3
20260901070525 64 0 0.0 0.0 0.00 0.00 0.00 96 1018.5
20260901070045 64 0 0.0 0.0 0.00 0.00 0.00 96 1018.7
20260901065521 64 0 0.0 0.0 0.00 0.00 0.00 96 1019.1
20260901065019 64 0 0.0 0.0 0.00 0.00 0.00 96 1019.1
20260901064542 64 0 0.0 0.0 0.00 0.00 0.00 96 1019.1
20260901064025 64 0 0.0 0.0 0.00 0.00 0.00 96 1019.2
20260901063518 64 0 0.0 0.0 0.00 0.00 0.00 96 1019.3
20260901063039 64 0 0.0 0.0 0.00 0.00 0.00 96 1019.4
20260901062524 64 0 0.0 0.0 0.00 0.00 0.00 96 1019.4
20260901062025 64 0 0.0 0.0 0.00 0.00 0.00 96 1019.6
20260901061543 64 0 0.0 0.0 0.00 0.00 0.00 96 1019.6
20260901061024 64 0 0.0 0.0 0.00 0.00 0.00 96 1019.7
20260901060523 64 0 0.0 0.0 0.00 0.00 0.00 96 1019.7
20260901060044 64 0 0.0 0.0 0.00 0.00 0.00 96 1019.6
20260901055523 64 0 0.0 0.0 0.00 0.00 0.00 96 1019.5
20260901055024 64 0 0.0 0.0 0.00 0.00 0.00 96 1019.6
20260901054538 64 0 0.0 0.0 0.00 0.00 0.00 96 1019.6
20260901054025 64 0 0.0 0.0 0.00 0.00 0.00 96 1019.7
20260901053524 64 0 0.0 0.0 0.00 0.00 0.00 96 1019.6
20260901053043 64 0 0.0 0.0 0.00 0.00 0.00 96 1019.7
20260901052527 64 0 0.0 0.0 0.00 0.00 0.00 96 1019.7
20260901052025 64 0 0.0 0.0 0.00 0.00 0.00 96 1019.7
20260901051541 64 0 0.0 0.0 0.00 0.00 0.00 96 1019.7
20260901051021 64 0 0.0 0.0 0.00 0.00 0.00 96 1019.9
20260901050518 64 0 0.0 0.0 0.00 0.00 0.00 96 1020.0
20260901050045 64 0 0.0 0.0 0.00 0.00 0.00 96 1020.1
20260901045518 64 0 0.0 0.0 0.00 0.00 0.00 96 1020.1
20260901045029 64 0 0.0 0.0 0.00 0.00 0.00 96 1019.9
20260901044541 64 0 0.0 0.0 0.00 0.00 0.00 95 1019.9
20260901044023 64 0 0.0 0.0 0.00 0.00 0.00 95 1020.0
20260901043524 64 0 0.0 0.0 0.00 0.00 0.00 95 1020.0
20260901043106 64 0 0.0 0.0 0.00 0.00 0.00 95 1019.8
20260901042525 64 0 0.0 0.0 0.00 0.00 0.00 95 1019.7
20260901042017 64 0 0.0 0.0 0.00 0.00 0.00 95 1019.8
20260901041541 64 0 0.0 0.0 0.00 0.00 0.00 95 1019.8
20260901041024 64 0 0.0 0.0 0.00 0.00 0.00 95 1020.0
20260901040523 64 0 0.0 0.0 0.00 0.00 0.00 95 1020.0
20260901040055 64 0 0.0 0.0 0.00 0.00 0.00 95 1019.8
20260901035525 64 0 0.0 0.0 0.00 0.00 0.00 95 1019.9
20260901035024 64 0 0.0 0.0 0.00 0.00 0.00 95 1020.0
20260901034549 64 0 0.0 0.0 0.00 0.00 0.00 95 1019.9
20260901034020 64 0 0.0 0.0 0.00 0.00 0.00 95 1020.0
20260901033523 64 0 0.0 0.0 0.00 0.00 0.00 95 1019.9
20260901033100 64 0 0.0 0.0 0.00 0.00 0.00 95 1019.8
20260901032525 64 0 0.0 0.0 0.00 0.00 0.00 95 1019.9
20260901032025 64 0 0.0 0.0 0.00 0.00 0.00 95 1020.0
20260901031602 64 0 0.0 0.0 0.00 0.00 0.00 95 1020.1
20260901031027 65 0 0.0 0.0 0.00 0.00 0.00 95 1020.0
20260901030523 65 0 0.0 0.0 0.00 0.00 0.00 95 1020.1
20260901030046 65 0 0.0 0.0 0.00 0.00 0.00 95 1020.1
20260901025526 65 0 0.0 0.0 0.00 0.00 0.00 95 1020.2
20260901025023 65 0 0.0 0.0 0.00 0.00 0.00 95 1020.3
20260901024539 65 0 0.0 0.0 0.00 0.00 0.00 94 1020.2
20260901024025 65 0 0.0 0.0 0.00 0.00 0.00 94 1020.3
20260901023525 65 0 0.0 0.0 0.00 0.00 0.00 94 1020.3
20260901023044 65 0 0.0 0.0 0.00 0.00 0.00 94 1020.4
20260901022527 65 0 0.0 0.0 0.00 0.00 0.00 94 1020.3
20260901022019 65 0 0.0 0.0 0.00 0.00 0.00 94 1020.4
20260901021544 65 0 0.0 0.0 0.00 0.00 0.00 94 1020.4
20260901021020 65 0 0.0 0.0 0.00 0.00 0.00 94 1020.4
20260901020523 65 0 0.0 0.0 0.00 0.00 0.00 94 1020.4
20260901020042 65 0 0.0 0.0 0.00 0.00 0.00 94 1020.3
20260901015523 65 0 0.0 0.0 0.00 0.00 0.00 94 1020.3
20260901015024 65 0 0.0 0.0 0.00 0.00 0.00 94 1020.3
20260901014552 65 0 0.0 0.0 0.00 0.00 0.00 94 1020.2
20260901014024 65 0 0.0 0.0 0.00 0.00 0.00 94 1020.3
20260901013520 65 0 0.0 0.0 0.00 0.00 0.00 94 1020.2
20260901013047 65 0 0.0 0.0 0.00 0.00 0.00 94 1020.2
20260901012518 65 0 0.0 0.0 0.00 0.00 0.00 94 1020.3
20260901012018 65 0 0.0 0.0 0.00 0.00 0.00 94 1020.2
20260901011541 65 0 0.0 0.0 0.00 0.00 0.00 93 1020.2
20260901011023 65 0 0.0 0.0 0.00 0.00 0.00 93 1020.2
20260901010523 65 0 0.0 0.0 0.00 0.00 0.00 93 1020.1
20260901010045 65 0 0.0 0.0 0.00 0.00 0.00 93 1020.2
20260901005518 65 0 0.0 0.0 0.00 0.00 0.00 93 1020.2
20260901005025 65 0 0.0 0.0 0.00 0.00 0.00 93 1020.1
20260901004541 66 0 0.0 0.0 0.00 0.00 0.00 93 1020.0
20260901004022 66 0 0.0 0.0 0.00 0.00 0.00 93 1020.1
20260901003525 66 0 0.0 0.0 0.00 0.00 0.00 93 1020.1
20260901003052 66 0 0.0 0.0 0.00 0.00 0.00 93 1020.2
20260901002519 66 0 0.0 0.0 0.00 0.00 0.00 93 1020.1
20260901002020 66 0 0.0 0.0 0.00 0.00 0.00 93 1020.1
20260901001554 66 0 0.0 0.0 0.00 0.00 0.00 93 1020.0
20260901001019 66 0 0.0 0.0 0.00 0.00 0.00 93 1020.0
20260901000522 66 0 0.0 0.0 0.00 0.00 0.00 92 1020.0
20260901000039 66 0 0.0 0.0 0.00 0.00 0.00 92 1020.2
20260831235530 66 0 0.0 0.0 0.00 0.01 0.00 91 1020.0
20260831235024 67 0 0.0 0.0 0.00 0.01 0.00 92 1020.1
20260831234543 67 0 0.0 0.0 0.00 0.01 0.00 92 1020.2
20260831234023 67 0 0.0 0.0 0.00 0.01 0.00 92 1020.0
20260831233520 67 0 0.0 0.0 0.00 0.01 0.00 92 1020.1
20260831233042 67 0 0.0 0.0 0.00 0.01 0.00 91 1020.1
20260831232518 67 0 0.0 0.0 0.00 0.01 0.00 91 1020.1
20260831232018 67 0 0.0 0.0 0.00 0.01 0.00 91 1020.1
20260831231544 68 0 0.0 0.0 0.00 0.01 0.00 91 1020.2
20260831231026 68 0 0.0 0.0 0.00 0.01 0.00 91 1020.3
20260831230523 68 0 0.0 0.0 0.00 0.01 0.00 91 1020.3
20260831230049 68 0 0.0 0.0 0.00 0.01 0.00 90 1020.4
20260831225521 68 0 0.0 0.0 0.00 0.04 0.00 91 1020.4
20260831225027 68 0 0.0 0.0 0.00 0.04 0.00 90 1020.5
20260831224541 68 0 0.0 0.0 0.00 0.04 0.00 89 1020.6
20260831224023 69 0 0.0 0.0 0.00 0.04 0.00 89 1020.5
20260831223526 69 0 0.0 0.0 0.00 0.04 0.00 89 1020.5
20260831223044 69 0 0.0 0.0 0.00 0.04 0.00 89 1020.5
20260831222523 69 0 0.0 0.0 0.00 0.04 0.00 89 1020.5
20260831222031 69 0 0.0 0.0 0.00 0.04 0.00 88 1020.6
20260831221555 69 0 0.0 0.0 0.00 0.04 0.00 87 1020.4
20260831221023 69 0 0.0 0.0 0.00 0.04 0.00 88 1020.5
20260831220521 70 0 0.0 0.0 0.00 0.04 0.00 88 1020.6
20260831220049 70 0 0.0 1.0 0.00 0.04 0.00 87 1020.5
20260831215524 70 0 0.0 1.0 0.00 0.04 0.00 87 1020.5
20260831215025 70 0 0.0 0.0 0.00 0.04 0.00 86 1020.4
20260831214554 70 0 0.0 0.0 0.00 0.04 0.00 86 1020.3
20260831214026 70 0 0.0 1.0 0.00 0.04 0.00 85 1020.3
20260831213528 70 0 0.0 1.0 0.00 0.04 0.00 85 1020.4
20260831213051 71 296 0.0 1.0 0.00 0.04 0.00 83 1020.5
20260831212525 71 0 0.0 1.0 0.00 0.04 0.00 83 1020.4
20260831212028 71 0 0.0 1.0 0.00 0.04 0.00 83 1020.4
20260831211542 71 0 0.0 1.0 0.00 0.04 0.00 83 1020.4
20260831211024 71 0 0.0 1.0 0.00 0.04 0.00 82 1020.5
20260831210524 71 0 0.0 1.0 0.00 0.04 0.00 81 1020.5
20260831210047 71 296 0.0 1.0 0.00 0.04 0.00 82 1020.4
20260831205523 71 0 0.0 1.0 0.00 0.04 0.00 81 1020.5
20260831205027 72 296 0.0 1.0 0.00 0.04 0.00 80 1020.5
20260831204553 72 296 0.0 1.0 0.00 0.04 0.00 81 1020.6
20260831204026 73 294 0.0 1.0 0.00 0.04 0.00 78 1020.5
20260831203522 73 295 0.0 1.0 0.00 0.04 0.00 79 1020.5
20260831203057 74 295 0.0 3.0 0.00 0.04 0.00 80 1020.5
20260831202525 74 295 0.0 3.0 0.00 0.04 0.00 77 1020.5
20260831202027 74 270 1.0 3.0 0.00 0.04 0.00 72 1020.5
20260831201541 75 276 1.0 3.0 0.00 0.04 0.00 68 1020.5
20260831201026 75 283 1.0 3.0 0.00 0.04 0.00 73 1020.5
20260831200526 75 320 1.0 3.0 0.00 0.04 0.00 67 1020.6
20260831200044 75 265 0.0 1.0 0.00 0.04 0.00 74 1020.5
20260831195524 76 131 0.0 3.0 0.00 0.04 0.00 72 1020.6
20260831195025 76 131 0.0 4.0 0.00 0.04 0.00 70 1020.6
20260831194543 77 326 2.0 5.0 0.00 0.04 0.00 69 1020.7
20260831194024 77 148 2.0 6.0 0.00 0.04 0.00 63 1020.8
20260831193521 78 23 1.0 6.0 0.00 0.04 0.00 63 1020.7
20260831193042 77 166 1.0 4.0 0.00 0.04 0.00 69 1020.8
20260831192523 78 285 1.0 4.0 0.00 0.04 0.00 66 1020.8
20260831192019 78 319 2.0 4.0 0.00 0.04 0.00 66 1020.9
20260831191550 78 220 1.0 5.0 0.00 0.04 0.00 65 1020.9
20260831191019 78 174 2.0 5.0 0.00 0.04 0.00 64 1020.9
20260831190520 77 157 1.0 4.0 0.00 0.04 0.00 65 1020.9
20260831190042 78 290 1.0 3.0 0.00 0.04 0.00 66 1021.0
20260831185525 78 212 0.0 3.0 0.00 0.04 0.00 71 1021.0
20260831185021 76 266 1.0 4.0 0.00 0.04 0.00 65 1021.0
20260831184543 76 110 2.0 4.0 0.00 0.04 0.00 67 1021.2
20260831184028 76 158 1.0 4.0 0.00 0.04 0.00 71 1021.3
20260831183522 76 236 1.0 2.0 0.00 0.04 0.00 74 1021.4
20260831183042 75 153 0.0 1.0 0.00 0.04 0.00 75 1021.4
20260831182520 74 284 0.0 2.0 0.00 0.04 0.00 75 1021.5
20260831182018 75 246 0.0 2.0 0.00 0.04 0.00 75 1021.6
20260831181540 75 246 0.0 2.0 0.00 0.04 0.00 71 1021.7
20260831181019 76 0 0.0 2.0 0.00 0.04 0.00 66 1021.6
20260831180524 76 310 1.0 3.0 0.00 0.04 0.00 67 1021.8
20260831180038 76 173 1.0 3.0 0.00 0.04 0.00 69 1021.7
20260831175520 76 250 1.0 3.0 0.00 0.04 0.00 73 1021.6
20260831175024 76 188 0.0 3.0 0.00 0.04 0.00 72 1021.7
20260831174542 75 204 1.0 3.0 0.00 0.04 0.00 73 1021.7
20260831174023 74 0 0.0 3.0 0.00 0.04 0.00 74 1021.7
20260831173518 75 146 1.0 3.0 0.00 0.04 0.00 72 1021.7
20260831173052 75 203 0.0 2.0 0.00 0.04 0.00 72 1021.8
20260831172519 75 255 1.0 2.0 0.00 0.04 0.00 74 1021.8
20260831172023 75 119 1.0 4.0 0.00 0.04 0.00 73 1021.9
20260831171541 74 0 1.0 4.0 0.00 0.04 0.00 74 1021.9
20260831171024 74 91 1.0 4.0 0.00 0.04 0.00 74 1021.9
20260831170524 74 56 1.0 4.0 0.00 0.04 0.00 73 1021.9
20260831170043 74 57 1.0 3.0 0.00 0.04 0.00 73 1022.0
20260831165519 74 347 0.0 3.0 0.00 0.04 0.00 74 1022.1
20260831165020 74 56 2.0 3.0 0.00 0.04 0.00 73 1022.1
20260831164556 73 296 1.0 3.0 0.00 0.04 0.00 75 1022.4
20260831164019 72 194 1.0 3.0 0.00 0.04 0.00 77 1022.3
20260831163520 73 118 1.0 4.0 0.00 0.04 0.00 76 1022.5
20260831163043 72 212 1.0 5.0 0.00 0.04 0.00 77 1022.6
20260831162521 72 282 0.0 5.0 0.00 0.04 0.00 79 1022.6
20260831162019 72 298 1.0 5.0 0.00 0.04 0.00 73 1022.6
20260831161544 72 206 1.0 4.0 0.00 0.04 0.00 74 1022.5
20260831161023 72 132 1.0 4.0 0.00 0.04 0.00 78 1022.6
20260831160525 72 175 2.0 4.0 0.00 0.04 0.00 78 1022.5
20260831160042 72 128 1.0 3.0 0.00 0.04 0.00 80 1022.7
20260831155520 72 113 1.0 3.0 0.00 0.04 0.00 82 1022.8
20260831155018 71 168 1.0 3.0 0.00 0.04 0.00 84 1022.8
20260831154600 71 235 1.0 2.0 0.00 0.04 0.00 85 1022.7
20260831154018 70 169 1.0 2.0 0.00 0.04 0.00 84 1022.8
20260831153525 69 101 0.0 2.0 0.00 0.04 0.00 84 1022.8
20260831153043 69 288 1.0 2.0 0.00 0.04 0.00 84 1022.8
20260831152521 68 211 0.0 2.0 0.00 0.04 0.00 87 1022.8
20260831152024 68 281 0.0 2.0 0.00 0.04 0.00 87 1022.8
20260831151541 67 310 1.0 3.0 0.00 0.04 0.00 87 1023.0
20260831151019 67 0 0.0 3.0 0.00 0.04 0.00 89 1022.9
20260831150521 67 194 0.0 3.0 0.00 0.04 0.00 90 1022.8
20260831150041 66 268 0.0 2.0 0.00 0.04 0.00 92 1022.8
20260831145517 65 235 1.0 2.0 0.00 0.04 0.00 93 1022.9
20260831145022 65 247 0.0 2.0 0.00 0.04 0.00 93 1022.9
20260831144542 65 303 0.0 1.0 0.00 0.04 0.00 93 1023.0
20260831144021 65 248 0.0 1.0 0.00 0.04 0.00 94 1023.1
20260831143521 64 0 0.0 1.0 0.00 0.04 0.00 95 1023.2
20260831143042 63 146 0.0 2.0 0.00 0.04 0.00 96 1023.2
20260831142520 63 340 0.0 2.0 0.00 0.04 0.00 95 1023.1
20260831142018 63 297 0.0 2.0 0.00 0.04 0.00 95 1023.1
20260831141540 63 191 1.0 2.0 0.00 0.04 0.00 96 1023.1
20260831141019 62 293 0.0 2.0 0.00 0.04 0.00 96 1023.2
20260831140519 62 282 0.0 1.0 0.00 0.04 0.00 96 1023.1
20260831140039 62 22 0.0 2.0 0.00 0.04 0.00 97 1023.0
20260831135525 62 105 0.0 3.0 0.00 0.04 0.00 97 1023.0
20260831135025 62 218 0.0 3.0 0.00 0.04 0.00 97 1023.1
20260831134544 62 243 0.0 1.0 0.00 0.04 0.00 97 1023.1
20260831134020 62 0 0.0 3.0 0.00 0.04 0.00 98 1023.2
20260831133518 61 0 1.0 3.0 0.00 0.04 0.00 98 1023.0
20260831133041 61 0 0.0 3.0 0.00 0.04 0.00 98 1023.1
20260831132524 61 190 1.0 3.0 0.00 0.04 0.00 98 1023.1
20260831132018 61 84 1.0 2.0 0.00 0.04 0.00 98 1023.1
20260831131538 61 225 0.0 1.0 0.00 0.04 0.00 98 1023.2
20260831131104 60 0 0.0 1.0 0.00 0.04 0.00 98 1023.1
20260831130521 60 164 0.0 1.0 0.00 0.04 0.00 98 1023.2
20260831130046 60 116 0.0 1.0 0.00 0.04 0.00 98 1023.1
20260831125523 60 0 0.0 1.0 0.00 0.04 0.00 98 1023.1
20260831125026 60 0 0.0 1.0 0.00 0.04 0.00 98 1023.1
20260831124552 60 117 0.0 1.0 0.00 0.04 0.00 98 1023.0
20260831124023 60 0 0.0 1.0 0.00 0.04 0.00 98 1023.0
20260831123522 60 0 0.0 0.0 0.00 0.04 0.00 98 1023.0
20260831123046 60 0 0.0 0.0 0.00 0.04 0.00 98 1023.1
20260831122528 60 0 0.0 0.0 0.00 0.04 0.00 98 1022.9
20260831122024 60 0 0.0 0.0 0.00 0.04 0.00 98 1022.9
20260831121542 60 0 0.0 0.0 0.00 0.04 0.00 98 1023.0
20260831121024 60 0 0.0 0.0 0.00 0.04 0.00 98 1023.0
20260831120528 60 0 0.0 0.0 0.00 0.04 0.00 98 1023.1
20260831120047 60 0 0.0 0.0 0.00 0.04 0.00 98 1023.1
20260831115522 60 0 0.0 0.0 0.00 0.04 0.00 98 1023.0